CBERS 1

Satellite information

Favourite Embed

Satellite Type and Status

PAYLOADIN ORBIT

Key statistics

Satellite CBERS 1 at a glance.

Uptime

9499

Days in orbit

Revolutions

≈ 14.4

Per day

Orbit

SSO

Sun Synchronous Orbit

Inclination

98.8

Latest

Satellite identification and parameters

Extended collection of information and parameters for CBERS 1.

Object identification

Identified? True

Debris? False

Object name: CBERS 1

International designator: 1999-057A

Object number (NORAD): 25940

Object ID (CCSDS): 25940

Country: PEOPLES REPUBLIC OF CHINA/BRAZIL (CHBZ)

Current information (Y/N): Y

RCS size: LARGE

Orbital parameters

Period: 100.219 minutes

Inclination: 98.8483 deg

SMA: 7147.047 km

Apoapsis: 772.538 km

Periapsis: 765.286 km

RAAN: 286.7017 deg

Eccentricy: 0.00050731

Argument of periapsis: 11.4366 deg

Mean anomaly: 348.6934 deg

Mean motion: 14.36854463 rev/day

Mean motion (dot): 0.00000378 rev/day2

B* drag term: 0.00014383522 1/REarth

Two-line elements (TLE)

Creation date: Oct. 16, 2025, 2:37 a.m.

Reference frame: TEME

Reference center: EARTH

Epoch: Oct. 15, 2025, 11:27 p.m. UTC

TLE line 0: 0 CBERS 1

TLE line 1: 1 25940U 99057A 25288.97727998 .00000378 00000-0 14384-3 0 9994

TLE line 2: 2 25940 98.8483 286.7017 0005073 11.4366 348.6934 14.36854463362449

Live tracking on map

Real-time ground track for satellite CBERS 1.

In-orbit conjunctions

A list of the most updated potential collisions computed for object CBERS 1.

Target Orbit TCA Probability of collision Miss distance Type
NOAA 16 DEB SSO 2025-03-30 06:12:25 0.0002072939 315.0 (m) DEBRIS
DELTA 1 DEB SSO 2024-12-29 13:01:26 0.000135042 313.0 (m) DEBRIS
COSMOS 1867 COOLANT LEO 2024-11-25 06:46:42 0.0001466039 533.0 (m) DEBRIS
SL-14 DEB LEO 2024-10-12 18:16:28 0.0001444583 928.0 (m) DEBRIS
NOAA 12 DEB SSO 2024-09-12 14:14:17 0.0002673251 125.0 (m) DEBRIS

Associated space launch

The CBERS (China Brazil Earth Resources Satellite) or ZY 1 (Zi Yuan) satellites are designed for global coverage and include cameras to make optical observations and a data collecting system to gather data on the environment. They are unique systems due to the use of on-board sensors which combine features that are especially designed to resolve the broad range of space and time scales involved in the monitoring and preservation of the ecosystem. They are operated jointly by the China Centre for Resources Satellite Data and Application (CRESDA) and the Brazilian INPE (Instituto Nacional de Pesquisas Espaciais, National Institute of Space Research).

CBERS 1 was lifted into orbit during the mission ‘Long March 4B | Zi Yuan 1-1’, on board a Long March 4B space rocket.

The launch took place on Oct. 14, 1999, 3:15 a.m. from Launch Complex 7.

For more information about the launch, click the button.

Launch to space Long March 4B | Zi Yuan 1-1
Long March 4B | Zi Yuan 1-1

Agency: N/A

Status: Launch Successful

Launch date: Oct. 14, 1999, 3:15 a.m. UTC

Rocket: Long March 4B

Launch pad: Launch Complex 7

Location: Taiyuan Satellite Launch Center, People's Republic of China

...

Latest news about this satellite

There are no fresh news available about this satellite. Check back as we update our databases every day.


Newsletter sign-up

Weekly statistics, charts and insights to help you stay on top of the space industry.